This demonstration page uses our WeatherBlox Daily Observations layout. Learn more.

Left ArrowRight Arrow

Hourly Observations for March 19, 2022

Temp ( °F °C ) Dew Point ( °F °C ) Humidity (%) Winds ( mph kmh ) Pressure ( in mb ) Visibility ( mi km ) Precip ( " mm )
12:53 am 00:53 Cloudy 35 1.7 25 -3.9 67 67 Calm 29.94 1014 10 16 0.00 0.00
1:53 am 01:53 Partly Cloudy 33 0.6 25 -3.9 72 72 W 5 7 29.92 1013 10 16 0.00 0.00
2:53 am 02:53 Cloudy 32 0 26 -3.3 79 79 WSW 3 6 29.92 1013 10 16 0.00 0.00
3:53 am 03:53 Cloudy 30 -1.1 25 -3.9 82 82 W 6 9 29.92 1013 10 16 0.00 0.00
4:53 am 04:53 Clear 28 -2.2 23 -5 81 81 W 5 7 29.91 1013 10 16 0.00 0.00
5:53 am 05:53 Clear 27 -2.8 23 -5 85 85 WSW 5 7 29.92 1013 10 16 0.00 0.00
6:53 am 06:53 Clear 28 -2.2 24 -4.4 85 85 W 3 6 29.92 1013 10 16 0.00 0.00
7:53 am 07:53 Sunny 27 -2.8 24 -4.4 89 89 Calm 29.92 1013 10 16 0.00 0.00
8:53 am 08:53 Sunny 34 1.1 27 -2.8 76 76 W 3 6 29.91 1013 10 16 0.00 0.00
9:53 am 09:53 Sunny 40 4.4 28 -2.2 63 63 NNW 3 6 29.88 1012 10 16 0.00 0.00
10:53 am 10:53 Sunny 46 7.8 29 -1.7 51 51 WSW 5 7 29.86 1011 10 16 0.00 0.00
11:53 am 11:53 Sunny 53 11.7 28 -2.2 38 38 SW 12 19 29.83 1010 10 16 0.00 0.00
12:53 pm 12:53 Sunny 57 13.9 25 -3.9 29 29 SW 12 19 29.80 1009 10 16 0.00 0.00
1:53 pm 13:53 Sunny 59 15 23 -5 25 25 SW 14 22 29.78 1008 10 16 0.00 0.00
2:53 pm 14:53 Sunny 60 15.6 20 -6.7 21 21 SSW 10 17 29.75 1007 10 16 0.00 0.00
3:53 pm 15:53 Sunny 61 16.1 18 -7.8 19 19 WSW 9 15 29.72 1007 10 16 0.00 0.00
4:53 pm 16:53 Sunny 59 15 19 -7.2 21 21 SW 5 7 29.72 1006 10 16 0.00 0.00
5:53 pm 17:53 Sunny 59 15 21 -6.1 23 23 ENE 3 6 29.70 1006 10 16 0.00 0.00
6:53 pm 18:53 Sunny 55 12.8 23 -5 29 29 ENE 7 11 29.68 1005 10 16 0.00 0.00
7:53 pm 19:53 Clear 51 10.6 22 -5.6 32 32 E 10 17 29.69 1005 10 16 0.00 0.00
8:53 pm 20:53 Mostly Clear 49 9.4 24 -4.4 38 38 E 6 9 29.66 1005 10 16 0.00 0.00
9:53 pm 21:53 Partly Cloudy 51 10.6 26 -3.3 38 38 VRB 7 11 29.65 1004 10 16 0.00 0.00
10:53 pm 22:53 Clear 51 10.6 29 -1.7 43 43 SSW 14 22 29.64 1004 10 16 0.00 0.00
11:53 pm 23:53 Cloudy 52 11.1 31 -0.6 45 45 WSW 18 30 29.63 1003 10 16 0.00 0.00

Powered by AerisWeather